Stanton, MN

11:52 PM CST on December 11, 2019 (GMT -0600)
Stanton

Weather History for KSYN - October, 2019

Change the Weather History Date:

Sunday, October 6, 2019

  Actual Average (WUND) Record (WUND)
Temperature  
Mean Temperature 54 °F -  
Max Temperature 65 °F - - (-1)
Min Temperature 43 °F - - (-1)
Degree Days  
Heating Degree Days 11    
Growing Degree Days 4 (Base 50)    
Moisture  
Dew Point 42 °F    
Average Humidity 65    
Maximum Humidity 90    
Minimum Humidity 38    
Precipitation  
Precipitation 0.00 in - - ()
Sea Level Pressure  
Sea Level Pressure 29.96 in    
Wind  
Wind Speed 10 mph ()    
Max Wind Speed 24 mph    
Max Gust Speed 32 mph    
Visibility 10.0 miles    
Events      
Averages and records for this station are not official NWS values.
T = Trace of Precipitation, MM = Missing Value Source: Averaged Metar Reports

Daily Weather History Graph

Daily Weather History Graph

Search for Another Location

Airport or City:

Astronomy

Oct. 06, 2019 Rise Set
Actual Time 7:15 AM CDT 6:43 PM CDT
Civil Twilight 6:46 AM CDT 7:12 PM CDT
Nautical Twilight 6:12 AM CDT 7:46 PM CDT
Astronomical Twilight 5:39 AM CDT 8:20 PM CDT
Moon 3:40 PM CDT (10/6) No Moon Set
Length of Visible Light 12h 26m
Length of Day
11h 28m
First Quarter, 60% of the Moon is Illuminated
Oct 6
First Quarter
Oct 13
Full
Oct 21
Last Quarter
Oct 27
New
Nov 4
First Quarter

Hourly Weather History & Observations

Time (CDT) Temp. Windchill Dew Point Humidity Pressure Visibility Wind Dir Wind Speed Gust Speed Precip Events Conditions
12:15 AM 47.5 °F - 43.9 °F 87% 29.86 in 10.0 mi SW 11.5 mph - N/A   Clear
12:35 AM 48.4 °F - 43.7 °F 84% 29.86 in 10.0 mi SW 10.4 mph - N/A   Clear
12:36 AM 48.4 °F - 43.9 °F 84% 29.86 in 10.0 mi SW 10.4 mph - N/A   Clear
12:55 AM 49.5 °F - 43.7 °F 81% 29.86 in 10.0 mi WSW 10.4 mph - N/A   Clear
1:15 AM 49.5 °F - 43.7 °F 81% 29.87 in 10.0 mi SW 9.2 mph - N/A   Clear
1:35 AM 48.6 °F - 43.3 °F 82% 29.88 in 10.0 mi WSW 5.8 mph - N/A   Clear
1:36 AM 48.6 °F - 43.3 °F 82% 29.88 in 10.0 mi WSW 5.8 mph - N/A   Clear
1:55 AM 47.7 °F - 43.2 °F 84% 29.88 in 10.0 mi SW 6.9 mph - N/A   Clear
1:56 AM 47.7 °F - 43.2 °F 84% 29.88 in 10.0 mi SW 8.1 mph - N/A   Clear
2:15 AM 46.9 °F - 43.0 °F 86% 29.89 in 10.0 mi SSW 5.8 mph - N/A   Clear
2:55 AM 45.7 °F 42.0 °F 42.8 °F 90% 29.89 in 10.0 mi SSW 6.9 mph - N/A   Clear
2:56 AM 45.7 °F 42.0 °F 42.8 °F 90% 29.89 in 10.0 mi SSW 6.9 mph - N/A   Clear
3:15 AM 46.0 °F 42.5 °F 43.0 °F 89% 29.89 in 10.0 mi SSW 6.9 mph - N/A   Clear
3:35 AM 47.1 °F - 43.2 °F 86% 29.89 in 10.0 mi SSW 9.2 mph - N/A   Clear
3:36 AM 47.3 °F - 43.2 °F 86% 29.89 in 10.0 mi SSW 8.1 mph - N/A   Clear
3:55 AM 46.0 °F 41.9 °F 42.8 °F 88% 29.89 in 10.0 mi SSW 8.1 mph - N/A   Clear
4:15 AM 45.9 °F 41.7 °F 42.4 °F 88% 29.89 in 10.0 mi SW 8.1 mph - N/A   Clear
4:16 AM 45.9 °F 41.7 °F 42.4 °F 88% 29.89 in 10.0 mi SW 8.1 mph - N/A   Clear
4:35 AM 46.0 °F 41.9 °F 42.4 °F 87% 29.90 in 10.0 mi SW 8.1 mph - N/A   Clear
4:36 AM 46.0 °F 41.9 °F 42.4 °F 87% 29.90 in 10.0 mi SW 8.1 mph - N/A   Clear
4:55 AM 46.4 °F 42.4 °F 42.6 °F 87% 29.90 in 10.0 mi SSW 8.1 mph - N/A   Clear
5:15 AM 45.5 °F - 41.9 °F 87% 29.91 in 10.0 mi Calm Calm - N/A   Clear
5:16 AM 45.5 °F - 41.9 °F 87% 29.91 in 10.0 mi Calm Calm - N/A   Clear
5:35 AM 44.6 °F 42.2 °F 41.4 °F 88% 29.91 in 10.0 mi SSW 4.6 mph - N/A   Clear
5:55 AM 44.2 °F 41.8 °F 41.2 °F 89% 29.92 in 10.0 mi SSW 4.6 mph - N/A   Clear
6:15 AM 43.5 °F 40.9 °F 40.6 °F 90% 29.92 in 10.0 mi SSW 4.6 mph - N/A   Clear
6:35 AM 43.9 °F 41.3 °F 40.8 °F 89% 29.92 in 10.0 mi SW 4.6 mph - N/A   Clear
6:55 AM 46.0 °F 41.9 °F 41.4 °F 84% 29.91 in 10.0 mi SW 8.1 mph - N/A   Clear
6:56 AM 46.2 °F 42.2 °F 41.4 °F 83% 29.92 in 10.0 mi SW 8.1 mph - N/A   Clear
7:15 AM 46.4 °F 41.9 °F 41.2 °F 82% 29.93 in 10.0 mi SW 9.2 mph - N/A   Clear
7:16 AM 46.4 °F 42.4 °F 41.2 °F 82% 29.93 in 10.0 mi WSW 8.1 mph - N/A   Clear
7:35 AM 45.9 °F 41.7 °F 41.2 °F 84% 29.93 in 10.0 mi SW 8.1 mph - N/A   Clear
7:36 AM 45.9 °F 41.7 °F 41.2 °F 84% 29.93 in 10.0 mi SW 8.1 mph - N/A   Clear
7:55 AM 45.7 °F 42.0 °F 41.2 °F 84% 29.93 in 10.0 mi SW 6.9 mph - N/A   Clear
7:56 AM 45.9 °F 42.3 °F 41.2 °F 84% 29.93 in 10.0 mi SW 6.9 mph - N/A   Clear
8:15 AM 48.2 °F - 41.2 °F 77% 29.94 in 10.0 mi WSW 8.1 mph - N/A   Clear
8:16 AM 48.2 °F - 41.2 °F 77% 29.94 in 10.0 mi WSW 8.1 mph - N/A   Clear
8:35 AM 49.6 °F - 41.0 °F 72% 29.94 in 10.0 mi WSW 10.4 mph - N/A   Clear
8:55 AM 50.9 °F - 41.2 °F 69% 29.95 in 10.0 mi WSW 11.5 mph 19.6 mph N/A   Clear
9:15 AM 52.0 °F - 41.5 °F 68% 29.96 in 10.0 mi WSW 10.4 mph 17.3 mph N/A   Clear
9:35 AM 52.9 °F - 41.4 °F 65% 29.96 in 10.0 mi WSW 12.7 mph 18.4 mph N/A   Clear
9:55 AM 53.6 °F - 41.7 °F 64% 29.96 in 10.0 mi WSW 13.8 mph 18.4 mph N/A   Clear
10:15 AM 54.7 °F - 41.7 °F 62% 29.97 in 10.0 mi WSW 13.8 mph 20.7 mph N/A   Clear
10:35 AM 55.6 °F - 42.3 °F 61% 29.98 in 10.0 mi WSW 15.0 mph 18.4 mph N/A   Clear
10:55 AM 56.8 °F - 42.1 °F 58% 29.98 in 10.0 mi WSW 13.8 mph 19.6 mph N/A   Clear
10:56 AM 56.7 °F - 42.1 °F 58% 29.98 in 10.0 mi WSW 12.7 mph 19.6 mph N/A   Clear
11:15 AM 57.7 °F - 42.4 °F 57% 29.98 in 10.0 mi WSW 15.0 mph 20.7 mph N/A   Clear
11:16 AM 57.9 °F - 42.4 °F 56% 29.98 in 10.0 mi WSW 16.1 mph 20.7 mph N/A   Clear
11:35 AM 58.3 °F - 42.6 °F 56% 29.99 in 10.0 mi WSW 17.3 mph 24.2 mph N/A   Clear
11:36 AM 58.3 °F - 42.4 °F 56% 29.99 in 10.0 mi WSW 18.4 mph 24.2 mph N/A   Clear
11:55 AM 59.4 °F - 41.9 °F 52% 29.99 in 10.0 mi WSW 11.5 mph 24.2 mph N/A   Clear
12:15 PM 60.3 °F - 42.6 °F 52% 29.99 in 10.0 mi WSW 17.3 mph 24.2 mph N/A   Clear
12:35 PM 61.2 °F - 42.8 °F 51% 29.98 in 10.0 mi WSW 18.4 mph 25.3 mph N/A   Clear
12:55 PM 61.9 °F - 43.0 °F 50% 29.98 in 10.0 mi WSW 15.0 mph 21.9 mph N/A   Clear
1:15 PM 63.0 °F - 41.4 °F 45% 29.98 in 10.0 mi West 17.3 mph 23.0 mph N/A   Clear
1:35 PM 63.5 °F - 41.9 °F 45% 29.98 in 10.0 mi West 18.4 mph 25.3 mph N/A   Clear
1:55 PM 64.4 °F - 39.4 °F 40% 29.97 in 10.0 mi West 18.4 mph 26.5 mph N/A   Clear
1:56 PM 64.2 °F - 39.4 °F 40% 29.97 in 10.0 mi West 18.4 mph 26.5 mph N/A   Clear
2:15 PM 64.4 °F - 39.6 °F 40% 29.97 in 10.0 mi West 18.4 mph 26.5 mph N/A   Scattered Clouds
2:35 PM 64.2 °F - 38.8 °F 39% 29.97 in 10.0 mi West 23.0 mph 28.8 mph N/A   Scattered Clouds
2:36 PM 64.6 °F - 39.0 °F 39% 29.97 in 10.0 mi West 23.0 mph 31.1 mph N/A   Scattered Clouds
2:55 PM 64.8 °F - 38.7 °F 38% 29.97 in 10.0 mi WSW 23.0 mph 32.2 mph N/A   Scattered Clouds
2:56 PM 64.8 °F - 38.7 °F 38% 29.97 in 10.0 mi WSW 23.0 mph 32.2 mph N/A   Scattered Clouds
3:15 PM 65.1 °F - 39.7 °F 39% 29.97 in 10.0 mi West 23.0 mph 31.1 mph N/A   Scattered Clouds
3:16 PM 64.9 °F - 39.7 °F 40% 29.97 in 10.0 mi West 24.2 mph 31.1 mph N/A   Scattered Clouds
3:35 PM 64.6 °F - 40.1 °F 41% 29.97 in 10.0 mi West 18.4 mph 31.1 mph N/A   Scattered Clouds
3:36 PM 64.6 °F - 40.3 °F 41% 29.97 in 10.0 mi West 19.6 mph 28.8 mph N/A   Scattered Clouds
3:55 PM 64.4 °F - 40.3 °F 41% 29.97 in 10.0 mi West 19.6 mph 29.9 mph N/A   Scattered Clouds
4:15 PM 62.1 °F - 40.5 °F 45% 29.98 in 10.0 mi West 18.4 mph 27.6 mph N/A   Scattered Clouds
4:16 PM 62.1 °F - 40.5 °F 45% 29.98 in 10.0 mi West 19.6 mph 27.6 mph N/A   Scattered Clouds
4:35 PM 62.4 °F - 40.6 °F 45% 29.98 in 10.0 mi West 18.4 mph 24.2 mph N/A   Scattered Clouds
4:36 PM 62.8 °F - 40.8 °F 45% 29.98 in 10.0 mi West 19.6 mph 25.3 mph N/A   Scattered Clouds
4:55 PM 63.5 °F - 40.5 °F 43% 29.98 in 10.0 mi West 19.6 mph 26.5 mph N/A   Scattered Clouds
4:56 PM 63.5 °F - 40.6 °F 43% 29.98 in 10.0 mi West 20.7 mph 26.5 mph N/A   Scattered Clouds
5:15 PM 62.8 °F - 39.9 °F 43% 29.98 in 10.0 mi West 19.6 mph 25.3 mph N/A   Scattered Clouds
5:35 PM 61.7 °F - 41.4 °F 47% 29.98 in 10.0 mi West 12.7 mph - N/A   Scattered Clouds
5:55 PM 61.2 °F - 41.0 °F 47% 29.98 in 10.0 mi West 9.2 mph - N/A   Clear
5:56 PM 61.2 °F - 41.0 °F 47% 29.99 in 10.0 mi West 8.1 mph - N/A   Clear
6:15 PM 59.5 °F - 41.4 °F 51% 29.99 in 10.0 mi West 8.1 mph - N/A   Clear
6:16 PM 59.5 °F - 41.2 °F 51% 29.99 in 10.0 mi West 8.1 mph - N/A   Clear
6:35 PM 59.2 °F - 40.6 °F 50% 29.99 in 10.0 mi WSW 9.2 mph - N/A   Clear
6:55 PM 58.3 °F - 41.2 °F 53% 29.99 in 10.0 mi WSW 8.1 mph - N/A   Mostly Cloudy
7:15 PM 57.2 °F - 41.7 °F 56% 30.00 in 10.0 mi WSW 6.9 mph - N/A   Scattered Clouds
7:35 PM 56.1 °F - 41.4 °F 58% 30.01 in 10.0 mi WSW 5.8 mph - N/A   Clear
7:55 PM 56.3 °F - 41.7 °F 58% 30.02 in 10.0 mi WSW 6.9 mph - N/A   Mostly Cloudy
8:15 PM 55.9 °F - 41.4 °F 58% 30.02 in 10.0 mi WSW 8.1 mph - N/A   Mostly Cloudy
8:35 PM 52.2 °F - 42.3 °F 69% 30.03 in 10.0 mi SW 6.9 mph - N/A   Mostly Cloudy
8:55 PM 51.4 °F - 41.9 °F 70% 30.03 in 10.0 mi SW 5.8 mph - N/A   Scattered Clouds
8:56 PM 51.4 °F - 41.9 °F 70% 30.03 in 10.0 mi WSW 5.8 mph - N/A   Scattered Clouds
9:15 PM 53.6 °F - 40.8 °F 62% 30.03 in 10.0 mi SW 6.9 mph - N/A   Scattered Clouds
9:35 PM 55.0 °F - 40.8 °F 59% 30.04 in 10.0 mi WSW 8.1 mph - N/A   Mostly Cloudy
9:36 PM 55.2 °F - 40.6 °F 58% 30.04 in 10.0 mi WSW 6.9 mph - N/A   Overcast
9:55 PM 54.7 °F - 40.8 °F 60% 30.04 in 10.0 mi WSW 5.8 mph - N/A   Overcast
9:56 PM 54.7 °F - 41.0 °F 60% 30.04 in 10.0 mi WSW 6.9 mph - N/A   Overcast
10:15 PM 54.1 °F - 41.4 °F 62% 30.04 in 10.0 mi SW 6.9 mph - N/A   Overcast
10:16 PM 54.3 °F - 41.2 °F 61% 30.04 in 10.0 mi SW 6.9 mph - N/A   Overcast
10:35 PM 54.9 °F - 41.5 °F 61% 30.03 in 10.0 mi SW 8.1 mph - N/A   Overcast
10:55 PM 54.5 °F - 42.1 °F 63% 30.03 in 10.0 mi SW 6.9 mph - N/A   Overcast
10:56 PM 54.3 °F - 42.1 °F 63% 30.03 in 10.0 mi SW 8.1 mph - N/A   Overcast
11:15 PM 53.6 °F - 42.4 °F 66% 30.04 in 10.0 mi SW 8.1 mph - N/A   Overcast
11:16 PM 53.6 °F - 42.4 °F 66% 30.04 in 10.0 mi SW 8.1 mph - N/A   Overcast
11:35 PM 54.3 °F - 42.1 °F 63% 30.04 in 10.0 mi SW 8.1 mph - N/A   Overcast
11:55 PM 54.9 °F - 41.9 °F 62% 30.04 in 10.0 mi WSW 9.2 mph - N/A   Overcast